User: anonymous   Login
Location: Caltech
(34.1382°N, 118.1253°W)
Time: 04:26:40
(UTC-07:00)
Language:

Uribyol 2 - Orbit

View from above orbital plane
View from above orbital plane
View from above satellite
View from above satellite

Ground track
Ground track

The orbit data is extracted from the following two-line orbital elements,

1 22828U 93061F   18172.91223405 +.00000003 +00000-0 +18784-4 0  9991
2 22828 098.8481 147.7184 0008826 293.1463 066.8789 14.30676999258571
Epoch (UTC): 21 June 2018 21:53:37
Eccentricity: 0.0008826
inclination: 98.8481°
perigee height: 783 km
apogee height: 796 km
right ascension of ascending node: 147.7184°
argument of perigee: 293.1463°
revolutions per day: 14.30676999
mean anomaly at epoch: 66.8789°
orbit number at epoch: 25857

The dashed part of the orbit path shows where the satellite is in the earth's shadow,  

DLR